Providence, RI

8:38 AM EDT on June 24, 2017 (GMT -0400)
Green State

Weather History for KPVD - November, 2013

Change the Weather History Date:

Tuesday, November 12, 2013

  Actual Average Record
Temperature  
Mean Temperature 40 °F 46 °F  
Max Temperature 52 °F 55 °F 75 °F (1909)
Min Temperature 28 °F 37 °F 21 °F (1926)
Degree Days  
Heating Degree Days 25 19  
Month to date heating degree days 220 213  
Since 1 July heating degree days 633 671  
Cooling Degree Days 0 0  
Month to date cooling degree days 0 0  
Year to date cooling degree days 892 744  
Moisture  
Dew Point 26 °F    
Average Humidity 66    
Maximum Humidity 85    
Minimum Humidity 46    
Precipitation  
Precipitation 0.05 in 0.15 in 3.46 in (1947)
Month to date precipitation 0.44 1.71  
Year to date precipitation 36.45 40.16  
Snow  
Snow 0.10 in 0.00 in 7.30 in (1987)
Month to date snowfall 0.1 0.2  
Since 1 July snowfall 0.1 0.2  
Since 1 September snowfall 0.1 0.2  
Snow Depth 0.00 in    
Sea Level Pressure  
Sea Level Pressure 30.06 in    
Wind  
Wind Speed 10 mph (NW)    
Max Wind Speed 21 mph    
Max Gust Speed 26 mph    
Visibility 9 miles    
Events Rain , Snow    
T = Trace of Precipitation, MM = Missing Value Source: NWS Daily Summary

Daily Weather History Graph

Daily Weather History Graph

Search for Another Location

Airport or City:

Trip Planner

Search our weather history database for the weather conditions in past years. The results will help you decide how hot, cold, wet, or windy it might be!

Date:

Astronomy

Nov. 12, 2013 Rise Set
Actual Time 6:31 AM EST 4:27 PM EST
Civil Twilight 6:01 AM EST 4:57 PM EST
Nautical Twilight 5:28 AM EST 5:30 PM EST
Astronomical Twilight 4:55 AM EST 6:03 PM EST
Moon 1:44 PM EST (11/12) 1:13 AM EST (11/12)
Length of Visible Light 10h 55m
Length of Day
9h 56m
Waxing Gibbous, 76% of the Moon is Illuminated
Nov 12
Waxing Gibbous
Nov 17
Full
Nov 25
Last Quarter
Dec 2
New
Dec 9
First Quarter

Hourly Weather History & Observations

Time (EST) Temp. Windchill Dew Point Humidity Pressure Visibility Wind Dir Wind Speed Gust Speed Precip Events Conditions
12:51 AM 51.1 °F - 33.1 °F 50% 29.92 in 10.0 mi SW 5.8 mph - N/A   Overcast
1:51 AM 51.1 °F - 34.0 °F 52% 29.92 in 10.0 mi WSW 8.1 mph - N/A   Overcast
2:51 AM 50.0 °F - 34.0 °F 54% 29.91 in 10.0 mi WSW 10.4 mph - 0.00 in   Overcast
3:51 AM 50.0 °F - 30.9 °F 48% 29.91 in 10.0 mi West 9.2 mph - N/A   Overcast
4:51 AM 46.0 °F 42.5 °F 36.0 °F 68% 29.93 in 10.0 mi West 6.9 mph 21.9 mph 0.00 in Rain Light Rain
5:51 AM 44.1 °F 39.5 °F 37.0 °F 76% 29.95 in 10.0 mi West 8.1 mph - 0.01 in Rain Light Rain
6:16 AM 42.8 °F 36.6 °F 37.4 °F 81% 29.96 in 10.0 mi WNW 11.5 mph 17.3 mph 0.00 in Rain Light Rain
6:51 AM 39.9 °F 32.9 °F 34.0 °F 79% 30.00 in 10.0 mi NW 11.5 mph 19.6 mph 0.01 in Rain Light Rain
6:59 AM 39.2 °F 32.0 °F 33.8 °F 81% 29.99 in 10.0 mi NW 11.5 mph 18.4 mph 0.00 in Rain Light Rain
7:47 AM 37.4 °F 30.3 °F 33.8 °F 87% 30.02 in 7.0 mi NW 10.4 mph 18.4 mph 0.00 in Rain Light Rain
7:51 AM 37.9 °F 32.1 °F 34.0 °F 86% 30.03 in 10.0 mi NW 8.1 mph 17.3 mph 0.00 in Rain Light Rain
8:15 AM 37.4 °F 29.3 °F 33.8 °F 87% 30.03 in 7.0 mi NW 12.7 mph 18.4 mph 0.01 in Rain Light Rain
8:51 AM 36.0 °F 27.1 °F 32.0 °F 86% 30.06 in 4.0 mi NW 13.8 mph 23.0 mph 0.02 in Rain , Snow Light Rain
9:02 AM 35.6 °F 27.5 °F 30.2 °F 81% 30.06 in 1.5 mi NW 11.5 mph - 0.00 in Snow Light Snow
9:35 AM 33.8 °F 24.3 °F 28.4 °F 81% 30.07 in 1.0 mi NW 13.8 mph - 0.00 in Snow Light Snow
9:51 AM 33.1 °F 24.4 °F 28.9 °F 85% 30.08 in 1.0 mi NNW 11.5 mph 21.9 mph 0.01 in Snow Light Snow
10:00 AM 33.8 °F 25.8 °F 30.2 °F 87% 30.07 in 2.0 mi NNW 10.4 mph 17.3 mph 0.00 in Snow Light Snow
10:09 AM 33.8 °F 26.4 °F 28.4 °F 81% 30.07 in 7.0 mi NNW 9.2 mph 19.6 mph 0.00 in Snow Light Snow
10:18 AM 33.8 °F 27.7 °F 26.6 °F 75% 30.07 in 10.0 mi NW 6.9 mph - 0.00 in Snow Light Snow
10:51 AM 34.0 °F 24.6 °F 26.1 °F 73% 30.06 in 10.0 mi NNW 13.8 mph 21.9 mph 0.00 in   Overcast
11:51 AM 35.1 °F 25.2 °F 19.0 °F 52% 30.06 in 10.0 mi North 16.1 mph 20.7 mph 0.00 in Snow Light Snow
12:51 PM 36.0 °F 28.0 °F 21.0 °F 55% 30.06 in 10.0 mi NW 11.5 mph 19.6 mph 0.00 in   Overcast
1:51 PM 36.0 °F 28.0 °F 21.0 °F 55% 30.07 in 10.0 mi NW 11.5 mph - N/A   Mostly Cloudy
2:51 PM 35.1 °F 25.9 °F 17.1 °F 48% 30.09 in 10.0 mi NW 13.8 mph 20.7 mph N/A   Overcast
3:51 PM 34.0 °F 25.5 °F 17.1 °F 50% 30.12 in 10.0 mi NW 11.5 mph - N/A   Overcast
4:51 PM 33.1 °F 24.4 °F 16.0 °F 50% 30.14 in 10.0 mi NNW 11.5 mph - N/A   Mostly Cloudy
5:51 PM 33.1 °F 26.9 °F 16.0 °F 50% 30.16 in 10.0 mi NW 6.9 mph - N/A   Mostly Cloudy
6:51 PM 33.1 °F 25.5 °F 16.0 °F 50% 30.17 in 10.0 mi NW 9.2 mph - N/A   Overcast
7:51 PM 33.1 °F 24.9 °F 16.0 °F 50% 30.18 in 10.0 mi NW 10.4 mph 18.4 mph N/A   Overcast
8:51 PM 32.0 °F 23.0 °F 15.1 °F 50% 30.19 in 10.0 mi NW 11.5 mph - N/A   Overcast
9:51 PM 30.9 °F 26.2 °F 15.1 °F 52% 30.20 in 10.0 mi NNW 4.6 mph - N/A   Overcast
10:51 PM 30.0 °F 21.1 °F 14.0 °F 51% 30.20 in 10.0 mi NNW 10.4 mph - N/A   Mostly Cloudy
11:51 PM 28.9 °F 21.9 °F 14.0 °F 54% 30.21 in 10.0 mi NNW 6.9 mph - N/A   Partly Cloudy